This demonstration page uses our WeatherBlox Daily Observations layout. Learn more.

Left ArrowRight Arrow

34.02893, -84.19858

Hourly Observations for July 29, 2021

Temp ( °F °C ) Dew Point ( °F °C ) Humidity (%) Winds ( mph kmh ) Pressure ( in mb ) Visibility ( mi km ) Precip ( " mm )
12:53 am 00:53 Clear 77 25 74 23.3 90 90 Calm 29.98 1015 9 14 0.00 0.00
1:53 am 01:53 Clear 75 23.9 73 22.8 94 94 Calm 29.96 1015 8 13 0.00 0.00
2:53 am 02:53 Clear with Mist and Fog 75 23.9 73 22.8 94 94 Calm 29.95 1014 6 10 0.00 0.00
3:53 am 03:53 Clear 75 23.9 72 22.2 90 90 Calm 29.94 1014 8 13 0.00 0.00
4:53 am 04:53 Clear 73 22.8 72 22.2 96 96 N 5 7 29.95 1014 7 11 0.00 0.00
5:53 am 05:53 Clear with Mist and Fog 73 22.8 72 22.2 96 96 Calm 29.97 1015 6 10 0.00 0.00
6:53 am 06:53 Sunny with Mist and Fog 73 22.8 72 22.2 96 96 Calm 29.99 1016 4 6 0.00 0.00
7:53 am 07:53 Sunny with Mist and Fog 76 24.4 74 23.3 94 94 Calm 30.01 1016 5 8 0.00 0.00
8:53 am 08:53 Sunny 81 27.2 75 23.9 82 82 Calm 30.02 1017 7 11 0.00 0.00
9:53 am 09:53 Sunny 85 29.4 75 23.9 72 72 SSW 3 6 30.02 1017 9 14 0.00 0.00
10:53 am 10:53 Sunny 87 30.6 76 24.4 70 70 SW 6 9 30.03 1017 9 14 0.00 0.00
11:53 am 11:53 Mostly Sunny 89 31.7 75 23.9 63 63 undefined N/A 30.03 1017 9 14 0.00 0.00
12:53 pm 12:53 Mostly Sunny 92 33.3 71 21.7 51 51 VRB 3 6 30.01 1016 10 16 0.00 0.00
1:53 pm 13:53 Mostly Sunny 92 33.3 73 22.8 54 54 WNW 9 15 30.00 1016 10 16 0.00 0.00
2:53 pm 14:53 Sunny 93 33.9 72 22.2 50 50 WSW 6 9 29.97 1015 10 16 0.00 0.00
3:53 pm 15:53 Sunny 93 33.9 68 20 44 44 Calm 29.95 1014 10 16 0.00 0.00
4:53 pm 16:53 Sunny 94 34.4 69 20.6 44 44 WNW 7 11 29.94 1014 10 16 0.00 0.00
5:53 pm 17:53 Sunny 93 33.9 68 20 44 44 W 6 9 29.93 1014 10 16 0.00 0.00
6:53 pm 18:53 Sunny 92 33.3 68 20 46 46 W 8 13 29.93 1014 10 16 0.00 0.00
7:53 pm 19:53 Sunny 89 31.7 70 21.1 53 53 NW 7 11 29.94 1014 10 16 0.00 0.00
8:53 pm 20:53 Clear 86 30 69 20.6 57 57 WNW 3 6 29.96 1014 9 14 0.00 0.00
9:53 pm 21:53 Clear 82 27.8 71 21.7 69 69 W 5 7 29.97 1015 10 16 0.00 0.00
10:53 pm 22:53 Clear 80 26.7 72 22.2 76 76 W 3 6 29.99 1016 10 16 0.00 0.00
11:53 pm 23:53 Clear 80 26.7 70 21.1 71 71 W 5 7 29.98 1015 10 16 0.00 0.00

Powered by AerisWeather